Air Force Academy, CO

11:11 PM MDT on September 21, 2017 (GMT -0600)
Usaf Academy

Weather History for KAFF - November, 2013

Change the Weather History Date:

Wednesday, November 6, 2013

  Actual Average Record
Temperature  
Mean Temperature 30 °F -  
Max Temperature 51 °F 49 °F 73 °F (1999)
Min Temperature 10 °F 27 °F 10 °F (2013)
Degree Days  
Heating Degree Days 34    
Moisture  
Dew Point 7 °F    
Average Humidity 36    
Maximum Humidity 76    
Minimum Humidity 17    
Precipitation  
Precipitation 0.00 in - - ()
Sea Level Pressure  
Sea Level Pressure 30.30 in    
Wind  
Wind Speed 8 mph (NNW)    
Max Wind Speed 20 mph    
Max Gust Speed 24 mph    
Visibility 10 miles    
Events      
Averages and records for this station are not official NWS values.
T = Trace of Precipitation, MM = Missing Value Source: NWS Daily Summary

Daily Weather History Graph

Daily Weather History Graph

Search for Another Location

Airport or City:

Trip Planner

Search our weather history database for the weather conditions in past years. The results will help you decide how hot, cold, wet, or windy it might be!

Date:

Astronomy

Nov. 06, 2013 Rise Set
Actual Time 6:32 AM MST 4:52 PM MST
Civil Twilight 6:04 AM MST 5:20 PM MST
Nautical Twilight 5:32 AM MST 5:52 PM MST
Astronomical Twilight 5:01 AM MST 6:23 PM MST
Moon 9:48 AM MST (11/6) 8:00 PM MST (11/6)
Length of Visible Light 11h 16m
Length of Day
10h 20m
Waxing Crescent, 14% of the Moon is Illuminated
Nov 6
Waxing Crescent
Nov 9
First Quarter
Nov 17
Full
Nov 25
Last Quarter
Dec 2
New

Hourly Weather History & Observations

Time (MST) Temp. Windchill Dew Point Humidity Pressure Visibility Wind Dir Wind Speed Gust Speed Precip Events Conditions
12:58 AM 10.9 °F 1.4 °F 4.6 °F 76% 30.28 in 10.0 mi North 5.8 mph - N/A   Clear
1:58 AM 11.1 °F 0.4 °F 4.5 °F 75% 30.30 in 10.0 mi NNE 6.9 mph - N/A   Clear
2:58 AM 11.8 °F 0.3 °F 4.6 °F 73% 30.29 in 10.0 mi NNE 8.1 mph - N/A   Clear
3:58 AM 11.7 °F 3.7 °F 3.6 °F 70% 30.30 in 10.0 mi NNE 4.6 mph - N/A   Clear
4:58 AM 14.9 °F 9.2 °F 2.3 °F 57% 30.30 in 10.0 mi Variable 3.5 mph - N/A   Clear
5:58 AM 16.5 °F 4.3 °F 3.7 °F 57% 30.29 in 10.0 mi NE 10.4 mph - N/A   Clear
6:58 AM 22.3 °F 14.9 °F 6.1 °F 50% 30.32 in 10.0 mi NW 5.8 mph - N/A   Clear
7:58 AM 34.2 °F 28.2 °F 9.9 °F 36% 30.30 in 10.0 mi Variable 6.9 mph - N/A   Clear
8:58 AM 40.1 °F 34.7 °F 7.2 °F 26% 30.30 in 10.0 mi WSW 8.1 mph - N/A   Clear
9:58 AM 45.7 °F 41.5 °F 8.1 °F 22% 30.27 in 10.0 mi WNW 8.1 mph 17.3 mph N/A   Clear
10:58 AM 47.5 °F - 8.8 °F 21% 30.25 in 10.0 mi West 5.8 mph - N/A   Clear
11:33 AM 50.0 °F - 6.8 °F 17% 30.20 in 10.0 mi West 15.0 mph 23.0 mph N/A   Clear
11:58 AM 50.5 °F - 7.7 °F 18% 30.26 in 10.0 mi WNW 13.8 mph 23.0 mph N/A   Clear
12:01 PM 50.0 °F - 6.8 °F 17% 30.19 in 10.0 mi NNW 17.3 mph 24.2 mph N/A   Clear
12:09 PM 50.0 °F - 6.8 °F 17% 30.19 in 10.0 mi WNW 16.1 mph 24.2 mph N/A   Clear
12:58 PM 51.3 °F - 7.5 °F 17% 30.26 in 10.0 mi NNW 8.1 mph 21.9 mph N/A   Clear
1:09 PM 50.0 °F - 8.6 °F 19% 30.19 in 10.0 mi NNE 12.7 mph - N/A   Partly Cloudy
1:58 PM 50.2 °F - 9.0 °F 19% 30.30 in 10.0 mi North 15.0 mph 19.6 mph N/A   Clear
2:58 PM 50.0 °F - 9.5 °F 20% 30.28 in 10.0 mi NNW 11.5 mph - N/A   Clear
3:58 PM 48.4 °F - 8.1 °F 20% 30.32 in 10.0 mi NNE 8.1 mph - N/A   Clear
4:58 PM 45.1 °F 37.3 °F 7.0 °F 21% 30.35 in 10.0 mi NW 19.6 mph 24.2 mph N/A   Clear
5:58 PM 42.6 °F 34.6 °F 8.1 °F 24% 30.37 in 10.0 mi NW 17.3 mph 24.2 mph N/A   Clear
6:58 PM 36.5 °F 31.8 °F 9.1 °F 32% 30.39 in 10.0 mi NE 5.8 mph - N/A   Clear
7:58 PM 36.1 °F 31.4 °F 8.4 °F 32% 30.35 in 10.0 mi NNE 5.8 mph - N/A   Clear
8:58 PM 32.2 °F 27.7 °F 9.3 °F 39% 30.36 in 10.0 mi SSW 4.6 mph - N/A   Clear
9:58 PM 28.4 °F 22.2 °F 9.3 °F 45% 30.37 in 10.0 mi ESE 5.8 mph - N/A   Clear
10:58 PM 30.0 °F 26.5 °F 9.7 °F 43% 30.38 in 10.0 mi NNW 3.5 mph - N/A   Clear
11:58 PM 30.2 °F 25.4 °F 9.9 °F 43% 30.37 in 10.0 mi SSE 4.6 mph - N/A   Clear